Location: Unspecified
(48.7670°N, 0.0000°E)
Time: 04:33:46
(UTC+00:00)

Vanguard 2 Rocket - Pass Details

Date: 10 October 2020
Orbit: 554 x 3326 km, 32.9° (Epoch: 26 October)

Event Time Altitude Azimuth Distance (km) Brightness Sun altitude
Exits shadow 23:22:27 10° 101° (E) 5,736 10.8 -48.0°
Drops below altitude 10° 23:22:34 10° 100° (E) 5,762 10.8 -48.0°
Sets 23:28:27 0° 93° (E) 7,085 11.4 -48.2°
